ARIANE 2 DEB, 26729

Orbit data source: Space-Track

ARIANE 2 DEB, 26729 is space debris in HEO originally from a launch on Fri, 27 Jan 1989 UTC launched from the French Guiana (FRGUI). Debris objects in space refer to the collection of defunct objects orbiting the Earth. Examples of debris include non-operational satellites, rocket bodies, and fragments generated from explosions, collisions, or faulty payload assembly.

Loading next visibility...
Identifier
26729, 1989-006G
Orbit
HEO
Country
Flag of FRFR
Related business
Manufacturer
EADS/LV
Mission
Spacecraft
Bus & Motor
Unknown
Mass
Unknown
Launch date (UTC)
1989-01-27 (37 years ago)
Launch vehicle
Unknown
Launch site
French Guiana (FRGUI)
Object type
Payload
Rocket body
Debris
Shape & HBR
Unknown shape, 3.4 m
Radar Cross Section
Large (>1 m²)

Expand to show TLE details & history
Last TLE update: 20 hours ago

TLE from 20 hours ago
0 ARIANE 2 DEB
1 26729U 89006G   25292.00742660  .00000269  00000-0  16458-2 0  9997
2 26729   8.3320  65.4091 7168684  96.7683 342.1543  2.31177117206761
Epoch: 2025-10-19T00:10Z
TLE epoch observation values (Epoch: 2025-10-19T00:10:41.658Z)
Latitude
0.00016°
Longitude
35.05338°
Altitude
6,446.763 km
Speed
6.757 km/s
True Right ascension
04h 21m 49s
True Declination
0° 00' 01"
Sunlit
Object was in daylight at epoch
Visualization orbit readout
Latitude
Unknown
Longitude
Unknown
Altitude
Unknown
Speed
Unknown
Apparent Right ascension
Unknown
Apparent Declination
Unknown
Sunlit
N/A
Visualization observer readout
Local Sidereal Time
15:33:44
Azimuth
Unknown
Elevation
Unknown
Doppler factor
Unknown
Orbital elements
Apogee altitude
35,111.171 km
Perigee altitude
463.933 km
Semi-major axis
24,165.689 km
Eccentricity
0.71687
Inclination
8.332°
RAAN
65.4091°
Arg. of periapsis
96.7683°
True anomaly
263.7968°
Mean anomaly
342.1543°
Eccentric anomaly
311.29474°
Mean motion
0.57776 °/min
Orbital period
623.1 mins
BSTAR
0.0016458
Loading maneuver chart data...
Computing Atmospheric mass density...
Loading historical data...
Loading historical data...
Loading historical data...
Loading historical data...
Loading historical data...
Loading historical data...
Loading historical data...

Documentation

Showing up to 5 results
|